Location: Newark
(44.3482°N, 5.8373°E)
Time: 07:34:40
(UTC+00:00)

Envisat - Visible Passes

Search period start: 14 December 2019 00:00
Search period end: 24 December 2019 00:00
Orbit: 764 x 766 km, 98.1° (Epoch: 14 December)

Date Brightness Start Highest point End Pass type
(mag) Time Alt. Az. Time Alt. Az. Time Alt. Az.
14 Dec 5.3 05:33:57 10° NE 05:38:11 26° E 05:42:24 10° SSE visible
14 Dec 3.4 16:49:53 10° SE 16:54:35 40° ENE 16:59:19 10° N visible
14 Dec 5.1 18:29:29 10° SSW 18:33:43 26° W 18:37:59 10° NW visible
15 Dec 6.2 04:59:09 10° ENE 05:01:01 12° E 05:02:51 10° ESE visible
15 Dec 3.6 17:51:46 10° S 17:56:45 57° W 18:01:46 10° NNW visible
16 Dec 4.3 05:58:59 10° NNE 06:03:51 44° E 06:08:41 10° S visible
16 Dec 2.9 17:14:56 10° SSE 17:19:58 68° ENE 17:25:02 10° N visible
16 Dec 5.9 18:56:31 10° SW 18:59:29 15° W 19:02:27 10° NW visible
17 Dec 5.7 05:23:00 10° NE 05:26:48 21° E 05:30:35 10° SE visible
17 Dec 3.6 16:38:54 10° SE 16:43:23 33° ENE 16:47:53 10° N visible
17 Dec 4.7 18:17:48 10° SSW 18:22:21 33° W 18:26:56 10° NNW visible
18 Dec 3.3 06:24:18 10° NNE 06:29:25 77° ESE 06:34:29 10° S visible
18 Dec 3.2 17:40:23 10° S 17:45:26 71° WSW 17:50:32 10° NNW visible
19 Dec 4.8 05:47:51 10° NNE 05:52:30 35° E 05:57:08 10° SSE visible
19 Dec 3.1 17:03:47 10° SSE 17:08:43 54° ENE 17:13:41 10° N visible
19 Dec 5.6 18:44:27 10° SW 18:48:04 19° W 18:51:42 10° NW visible
20 Dec 6.0 05:12:12 10° NE 05:15:25 17° E 05:18:36 10° SE visible
20 Dec 3.9 16:28:01 10° ESE 16:32:11 27° ENE 16:36:23 10° N visible
20 Dec 4.3 18:06:14 10° SSW 18:11:00 41° W 18:15:49 10° NNW visible
21 Dec 3.7 06:13:03 10° NNE 06:18:07 61° E 06:23:07 10° S visible
21 Dec 3.0 17:29:04 10° SSE 17:34:09 89° W 17:39:17 10° NNW visible
21 Dec 6.2 19:12:36 10° WSW 19:13:53 11° W 19:15:12 10° WNW visible
22 Dec 5.2 05:36:47 10° NE 05:41:09 28° E 05:45:30 10° SSE visible
22 Dec 3.3 16:52:42 10° SE 16:57:29 43° ENE 17:02:17 10° N visible
22 Dec 5.2 18:32:36 10° SSW 18:36:41 24° W 18:40:48 10° NW visible
23 Dec 6.1 05:01:38 10° ENE 05:03:59 13° E 05:06:19 10° ESE visible
23 Dec 3.8 17:54:45 10° S 17:59:41 52° W 18:04:39 10° NNW visible
